San Jose, CA

8:32 PM PDT on September 21, 2017 (GMT -0700)
San Jose International

Weather History for KSJC - October, 2012

Change the Weather History Date:

Wednesday, October 24, 2012

  Actual Average Record
Temperature  
Mean Temperature 55 °F 61 °F  
Max Temperature 65 °F 72 °F 90 °F (1959)
Min Temperature 44 °F 51 °F 38 °F (1956)
Degree Days  
Heating Degree Days 10 4  
Month to date heating degree days 99 55  
Since 1 July heating degree days 123 74  
Cooling Degree Days 0 0  
Month to date cooling degree days 43 34  
Year to date cooling degree days 487 633  
Growing Degree Days 4 (Base 50)    
Moisture  
Dew Point 47 °F    
Average Humidity 72    
Maximum Humidity 100    
Minimum Humidity 44    
Precipitation  
Precipitation 0.06 in 0.03 in 0.60 in (1998)
Month to date precipitation 0.32 0.53  
Year to date precipitation 5.87 11.26  
Since 1 July precipitation 0.33  
Sea Level Pressure  
Sea Level Pressure 30.12 in    
Wind  
Wind Speed 7 mph (East)    
Max Wind Speed 15 mph    
Max Gust Speed 18 mph    
Visibility 10 miles    
Events Rain    
T = Trace of Precipitation, MM = Missing Value Source: NWS Daily Summary

Daily Weather History Graph

Daily Weather History Graph

Search for Another Location

Airport or City:

Trip Planner

Search our weather history database for the weather conditions in past years. The results will help you decide how hot, cold, wet, or windy it might be!

Date:

Astronomy

Oct. 24, 2012 Rise Set
Actual Time 7:24 AM PDT 6:18 PM PDT
Civil Twilight 6:58 AM PDT 6:44 PM PDT
Nautical Twilight 6:27 AM PDT 7:15 PM PDT
Astronomical Twilight 5:57 AM PDT 7:45 PM PDT
Moon 3:31 PM PDT (10/24) 2:31 AM PDT (10/24)
Length of Visible Light 11h 46m
Length of Day
10h 53m
Waxing Gibbous, 77% of the Moon is Illuminated
Oct 24
Waxing Gibbous
Oct 29
Full
Nov 6
Last Quarter
Nov 13
New
Nov 20
First Quarter

Hourly Weather History & Observations

Time (PDT) Temp. Windchill Dew Point Humidity Pressure Visibility Wind Dir Wind Speed Gust Speed Precip Events Conditions
12:53 AM 45.0 °F 42.6 °F 44.1 °F 97% 30.06 in 10.0 mi ESE 4.6 mph - N/A   Clear
1:53 AM 45.0 °F 42.6 °F 45.0 °F 100% 30.06 in 10.0 mi East 4.6 mph - N/A   Partly Cloudy
2:53 AM 46.9 °F - 46.0 °F 97% 30.06 in 10.0 mi ESE 6.9 mph - N/A   Overcast
3:53 AM 46.9 °F - 46.0 °F 97% 30.06 in 10.0 mi East 9.2 mph - N/A   Mostly Cloudy
4:53 AM 46.9 °F - 46.0 °F 97% 30.06 in 10.0 mi ESE 8.1 mph - N/A   Overcast
5:53 AM 46.9 °F - 46.0 °F 97% 30.06 in 10.0 mi ESE 9.2 mph - N/A   Overcast
6:53 AM 46.9 °F - 46.9 °F 100% 30.08 in 10.0 mi ESE 10.4 mph - 0.03 in   Overcast
7:53 AM 46.9 °F - 46.9 °F 100% 30.09 in 10.0 mi ESE 8.1 mph - 0.02 in Rain Light Rain
8:33 AM 46.4 °F 42.9 °F 46.4 °F 100% 30.11 in 4.0 mi ESE 6.9 mph - 0.01 in Rain Light Rain
8:49 AM 48.2 °F - 48.2 °F 100% 30.11 in 10.0 mi ESE 6.9 mph - 0.01 in   Overcast
8:53 AM 48.7 °F - 47.3 °F 95% 30.11 in 10.0 mi ESE 6.9 mph - 0.01 in   Overcast
9:00 AM 48.2 °F - 48.2 °F 100% 30.12 in 10.0 mi ESE 9.2 mph - N/A   Overcast
9:53 AM 50.0 °F - 50.0 °F 100% 30.13 in 10.0 mi ESE 11.5 mph - N/A   Scattered Clouds
10:53 AM 54.0 °F - 52.0 °F 93% 30.14 in 10.0 mi ESE 12.7 mph - N/A   Partly Cloudy
11:53 AM 57.9 °F - 50.0 °F 75% 30.14 in 10.0 mi SSE 8.1 mph - N/A   Scattered Clouds
12:53 PM 59.0 °F - 46.9 °F 64% 30.14 in 10.0 mi Variable 4.6 mph - N/A   Overcast
1:53 PM 60.8 °F - 46.4 °F 59% 30.12 in 10.0 mi NW 8.1 mph - N/A   Mostly Cloudy
2:53 PM 64.0 °F - 42.1 °F 45% 30.12 in 10.0 mi West 10.4 mph - N/A   Partly Cloudy
3:53 PM 63.0 °F - 44.1 °F 50% 30.13 in 10.0 mi NNW 8.1 mph - N/A   Clear
4:53 PM 62.1 °F - 43.0 °F 50% 30.14 in 10.0 mi WNW 10.4 mph - N/A   Clear
5:53 PM 60.1 °F - 46.0 °F 60% 30.14 in 10.0 mi NNW 11.5 mph - N/A   Scattered Clouds
6:53 PM 57.9 °F - 46.0 °F 65% 30.16 in 10.0 mi NNW 6.9 mph - N/A   Mostly Cloudy
7:53 PM 57.9 °F - 46.9 °F 67% 30.17 in 10.0 mi NNW 5.8 mph - N/A   Overcast
8:53 PM 57.0 °F - 46.9 °F 69% 30.18 in 10.0 mi WNW 3.5 mph - N/A   Overcast
9:53 PM 57.0 °F - 46.9 °F 69% 30.18 in 10.0 mi Calm Calm - N/A   Overcast
10:53 PM 57.0 °F - 46.9 °F 69% 30.20 in 10.0 mi Calm Calm - N/A   Overcast
11:53 PM 57.0 °F - 48.0 °F 72% 30.21 in 10.0 mi Calm Calm - N/A   Overcast